THOR ABLESTAR DEB, 48811

Orbit data source: Space-Track

THOR ABLESTAR DEB, 48811 is space debris in LEO originally from a launch on Thu, 29 Jun 1961 UTC launched from the Air Force Eastern Test Range (AFETR). Debris objects in space refer to the collection of defunct objects orbiting the Earth. Examples of debris include non-operational satellites, rocket bodies, and fragments generated from explosions, collisions, or faulty payload assembly.

Loading next visibility...
Identifier
48811, 1961-015MP
Orbit
LEO
Country
Flag of USUS
Related business
Manufacturer
Unknown
Mission
Spacecraft
Bus & Motor
Unknown
Mass
Unknown
Launch date (UTC)
1961-06-29 (65 years ago)
Launch vehicle
Unknown
Launch site
Air Force Eastern Test Range (AFETR)
Object type
Payload
Rocket body
Debris
Shape & HBR
Unknown shape, 0.1 m
Radar Cross Section
Small (<0.1 m²)

Expand to show TLE details & history
Last TLE update: 3 days ago

TLE from 3 days ago
0 THOR ABLESTAR DEB
1 48811U 61015MP  26070.72297593  .00000435  00000-0  47012-3 0  9993
2 48811  67.0586 225.1199 0105544 219.9969 139.3300 13.79822112619189
Epoch: 2026-03-11T17:21Z
TLE epoch observation values (Epoch: 2026-03-11T17:21:05.120Z)
Latitude
0.00003°
Longitude
155.46545°
Altitude
1,025.732 km
Speed
7.31 km/s
True Right ascension
15h 00m 28s
True Declination
0° 00' 00"
Sunlit
Object was in full shadow at epoch
Visualization orbit readout
Latitude
Unknown
Longitude
Unknown
Altitude
Unknown
Speed
Unknown
Apparent Right ascension
Unknown
Apparent Declination
Unknown
Sunlit
N/A
Visualization observer readout
Local Sidereal Time
10:11:13
Azimuth
Unknown
Elevation
Unknown
Doppler factor
Unknown
Orbital elements
Apogee altitude
1,040.37 km
Perigee altitude
885.41 km
Semi-major axis
7,341.027 km
Eccentricity
0.01055
Inclination
67.0586°
RAAN
225.1199°
Arg. of periapsis
219.9969°
True anomaly
140.11036°
Mean anomaly
139.33°
Eccentric anomaly
139.72096°
Mean motion
3.45071 °/min
Orbital period
104.33 mins
BSTAR
0.00047012

Documentation

Showing up to 5 results
|